Regional Weather Roundup
Issued by NWS

Home | Current Version | Previous Version | Graphics & Text | Print | Product List | Glossary On
Versions: 1 2 3 4 5 6 7 8 9 10 11 12 13 14 15 16 17 18 19 20 21 22 23 24 25 26 27 28 29 30 31 32 33 34 35 36 37 38 39 40 41 42 43 44 45 46 47 48 49 50
000
ASUS45 KTFX 190904
RWRMT
MONTANA HOURLY WEATHER ROUNDUP
NATIONAL WEATHER SERVICE GREAT FALLS MT
304 AM MDT SAT APR 19 2014

NOTE: "FAIR" INDICATES FEW OR NO CLOUDS BELOW 12000 FEET WITH NO
SIGNIFICANT WEATHER AND/OR OBSTRUCTIONS TO VISIBILITY.

* THESE STATIONS ARE NOT UNDER NWS QUALITY CONTROL. THEY DO NOT
   REPORT WEATHER SUCH AS PRECIPITATION OR FOG.

MTZ001>007-043-191000-
WEST OF THE DIVIDE
CITY           SKY/WX    TMP DP  RH WIND       PRES   REMARKS
KALISPELL      PTCLDY    36  25  64 S7        29.99R WCI  30
MISSOULA       CLEAR     30  21  69 CALM      30.04S
BUTTE          CLEAR     21  14  74 E3        30.01S
MULLAN PASS    CLEAR     25  19  78 S6        29.93F WCI  18
* ESSEX        N/A       30  29  96 N/A        N/A
* LINCOLN      N/A       33  17  52 S5G12      N/A   WCI  28
* LOOKOUT PASS N/A       24  23  96 SE2        N/A
* POLSON       N/A       31  21  66 SE2        N/A
* SEELEY LAKE  N/A       24  20  85 N/A        N/A
* THOMP F APT  CLEAR     35  11  37 S4         N/A
$$

MTZ008-052>055-191000-
SOUTHWEST MONTANA
CITY           SKY/WX    TMP DP  RH WIND       PRES   REMARKS
BOZEMAN        PTCLDY    28  16  61 S10       29.99S WCI  19
DILLON         CLEAR     27  10  49 SW15      30.01S WCI  15
W YELLOWSTONE  N/A       28  26  92 SW1        N/A
* THREE FORKS  PTCLDY    37  10  33 N/A        N/A
* BOULDER HILL N/A       33   4  29 S5         N/A   WCI  28
* MONIDA PASS  N/A       32  12  43 SW8        N/A   WCI  25
* RAYNOLDS PAS N/A       30 -22   9 VRB4       N/A
* WHITEHALL    N/A       37   5  26 W6G12      N/A   WCI  32
* WISE RIVER   N/A       26  15  63 S3         N/A
$$

MTZ009>010-012-014-046-048-049-054-191000-
EAST SLOPES AND CENTRAL MONTANA
CITY           SKY/WX    TMP DP  RH WIND       PRES   REMARKS
CUT BANK       CLEAR     36  25  64 W18       29.86S WCI  26
GREAT FALLS    CLEAR     36  19  50 SW12      29.91R WCI  28
HELENA         PTCLDY    36  16  44 CALM      29.97F
MALMSTROM AFB  CLEAR     37  18  46 SW16      29.88S WCI  28
* CONRAD       CLEAR     34  23  64 W5         N/A   WCI  29
* DEARBORN     N/A       41  13  32 N1G6       N/A
* EAST GLACIER N/A       34  22  61 NW19G32    N/A   WCI  23
* MONARCH      N/A       34   6  31 SW14G26    N/A   WCI  24
* PENDROY      N/A       35  18  50 W13        N/A   WCI  26
* ROGERS PASS  N/A       32  14  47 SE10G25    N/A   WCI  24
* SAINT MARY   N/A       35  23  62 S7G21      N/A   WCI  29
* SWEET GRASS  N/A       29  29 100 W6         N/A   WCI  23
$$

MTZ011-013-016-021-035-040-045-047-050-051-191000-
NORTH CENTRAL MONTANA
CITY           SKY/WX    TMP DP  RH WIND       PRES   REMARKS
HAVRE          CLOUDY    39  30  70 W22       29.87R WCI  29
LEWISTOWN      CLEAR     34  16  48 SW15      29.89S WCI  24
* CHESTER      N/A       36  31  82 W14G22     N/A   WCI  27
* DENTON       N/A       35  17  48 SW9        N/A   WCI  28
* GEYSER       N/A       38  12  34 SW17       N/A   WCI  29
* JUDITH GAP   N/A       35  10  35 SW14       N/A   WCI  26
* LOMA         N/A       41  21  45 W12        N/A
$$

MTZ017>020-022>027-061-062-191000-
NORTHEAST MONTANA
CITY           SKY/WX    TMP DP  RH WIND       PRES   REMARKS
GLASGOW        CLOUDY    39  36  89 W23G33    29.75R WCI  28
GLENDIVE       CLEAR     37  27  67 SW16      29.81F WCI  28
JORDAN         CLEAR     39  23  53 W12G22    29.80S WCI  32
SIDNEY         CLEAR     37  30  76 SW10      29.77R WCI  30
WOLF POINT     PTCLDY    36  30  79 W9        29.74F WCI  29
* BEAVER HILL  N/A       38  31  76 S18        N/A   WCI  28
* CIRCLE       N/A       36  29  76 SW2        N/A
* LINDSAY DVD  N/A       38  24  57 SW20G28    N/A   WCI  28
* NAVAJO       N/A       36  32  85 W20G26     N/A   WCI  25
* SACO         N/A       38  35  89 W17G22     N/A   WCI  29
$$

MTZ028>042-056>058-191000-
SOUTHCENTRAL AND SOUTHEAST MONTANA
CITY           SKY/WX    TMP DP  RH WIND       PRES   REMARKS
BAKER          CLEAR     37  28  70 W10       29.84S WCI  30
BILLINGS       PTCLDY    39  16  39 N5        29.90R WCI  35
LIVINGSTON     PTCLDY    43   9  25 W21G26    29.93S
MILES CITY     CLEAR     39  27  62 W9        29.87S WCI  33
* LAUREL APT   PTCLDY    45   9  23 SW5        N/A
* ROUNDUP APT  PTCLDY    41  10  28 SW14       N/A
* HYSHAM       N/A       39  13  34 SW2G8      N/A
* LAME DEER    N/A       40  14  35 W9         N/A   WCI  34
* REED POINT   N/A       41  14  33 SW11G16    N/A
* ROSCOE HILL  N/A       34  15  46 SE9        N/A   WCI  27
$$

REGIONAL REPORTS...DAKOTAS
CITY           SKY/WX    TMP DP  RH WIND       PRES   REMARKS
WILLISTON      CLEAR     36  34  92 SW6       29.72S WCI  31
DICKINSON      CLEAR     37  30  76 W14       29.77R WCI  28
CROSBY         CLEAR     37  37 100 SW16      29.67S WCI  28
TIOGA          CLEAR     36  36 100 SW13      29.72S WCI  27
WATFORD CITY   CLEAR     36  34  92 SW9       29.73S WCI  29
BISMARCK       CLOUDY    46  39  77 W18       29.77R
GRAND FORKS    CLOUDY    45  32  60 SE14      29.73F
FARGO          CLOUDY    48  34  59 SE30G55   29.74R
BUFFALO SD     PTCLDY    37  28  70 W10       29.81R WCI  30
RAPID CITY     CLOUDY    46  25  44 NW16      29.89R
$$

REGIONAL REPORTS...WYOMING/IDAHO/WASHINGTON
CITY           SKY/WX    TMP DP  RH WIND       PRES   REMARKS
GILLETTE       PTCLDY    28  25  89 S3        29.93S
SHERIDAN       PTCLDY    34  28  79 S3        29.93R
CODY           PTCLDY    36  27  70 N3        29.91R
YELLOWSTONE LA PTCLDY    21  19  92 CALM      30.04F
SALMON         PTCLDY    28  18  66 CALM      30.03S
MULLAN PASS    CLEAR     25  19  78 S6        29.93S WCI  18
SPOKANE        CLEAR     37  27  67 S10       29.95S WCI  30
$$

REGIONAL REPORTS...ALBERTA
CITY           SKY/WX    TMP DP  RH WIND       PRES   REMARKS
MEDICINE HAT   CLOUDY    36  34  92 W14G21    29.85R WCI  27
$$

REGIONAL REPORTS...SASKATCHEWAN
CITY           SKY/WX    TMP DP  RH WIND       PRES   REMARKS
SWIFT CURRENT  LGT RAIN  36  34  92 NW21G30   29.66R VSB M1/4 WCI  25

$$




USA.gov is the U.S. government's official web portal to all federal, state and local government web resources and services.